| time (UTC) | temp F | wind direction | speed knots | gust knots | rain 1hr in | rain 24hr in | rain mn in | humidity % | barometer mb |
| 20260508013057 | 49 | 133 | 0.0 | 1.7 | 0.00 | 0.00 | 0.00 | 98 | 1017.7 |
| 20260508012858 | 49 | 143 | 0.0 | 1.7 | 0.00 | 0.00 | 0.00 | 98 | 1017.6 |
| 20260508012658 | 49 | 221 | 0.9 | 1.7 | 0.00 | 0.00 | 0.00 | 98 | 1017.6 |
| 20260508012457 | 49 | 150 | 0.9 | 1.7 | 0.00 | 0.00 | 0.00 | 98 | 1017.7 |
| 20260508012257 | 49 | 15 | 0.0 | 1.7 | 0.00 | 0.00 | 0.00 | 98 | 1017.8 |
| 20260508012059 | 49 | 310 | 0.0 | 1.7 | 0.00 | 0.00 | 0.00 | 98 | 1017.6 |
| 20260508011857 | 49 | 241 | 0.0 | 1.7 | 0.00 | 0.00 | 0.00 | 98 | 1017.7 |
| 20260508011658 | 49 | 337 | 0.9 | 1.7 | 0.00 | 0.00 | 0.00 | 98 | 1017.4 |
| 20260508011458 | 49 | 344 | 0.0 | 1.7 | 0.00 | 0.00 | 0.00 | 98 | 1017.7 |
| 20260508011258 | 49 | 70 | 0.0 | 1.7 | 0.00 | 0.00 | 0.00 | 98 | 1017.6 |
| 20260508011057 | 49 | 318 | 0.9 | 1.7 | 0.00 | 0.00 | 0.00 | 98 | 1017.6 |
| 20260508010858 | 49 | 63 | 0.0 | 1.7 | 0.00 | 0.00 | 0.00 | 98 | 1017.8 |
| 20260508010657 | 49 | 288 | 0.0 | 1.7 | 0.00 | 0.00 | 0.00 | 98 | 1017.5 |
| 20260508010457 | 49 | 339 | 0.0 | 1.7 | 0.00 | 0.00 | 0.00 | 98 | 1017.6 |
| 20260508010257 | 49 | 341 | 0.0 | 1.7 | 0.00 | 0.00 | 0.00 | 98 | 1017.6 |
| 20260508010057 | 49 | 87 | 0.9 | 1.7 | 0.00 | 0.00 | 0.00 | 98 | 1017.7 |
| 20260508005857 | 49 | 73 | 0.0 | 1.7 | 0.00 | 0.00 | 0.00 | 98 | 1017.6 |
| 20260508005657 | 49 | 75 | 0.9 | 1.7 | 0.00 | 0.00 | 0.00 | 98 | 1017.5 |
| 20260508005457 | 49 | 309 | 1.7 | 1.7 | 0.00 | 0.00 | 0.00 | 98 | 1017.6 |
| 20260508005257 | 49 | 336 | 0.0 | 1.7 | 0.00 | 0.00 | 0.00 | 98 | 1017.6 |
| 20260508005057 | 49 | 4 | 0.9 | 1.7 | 0.00 | 0.00 | 0.00 | 98 | 1017.6 |
| 20260508004857 | 49 | 215 | 0.9 | 1.7 | 0.00 | 0.00 | 0.00 | 98 | 1017.7 |
| 20260508004658 | 49 | 353 | 0.0 | 1.7 | 0.00 | 0.00 | 0.00 | 98 | 1017.6 |
| 20260508004457 | 49 | 322 | 0.0 | 1.7 | 0.00 | 0.00 | 0.00 | 98 | 1017.7 |
| 20260508004257 | 49 | 26 | 0.0 | 1.7 | 0.00 | 0.00 | 0.00 | 98 | 1017.6 |
| 20260508004057 | 49 | 143 | 0.9 | 1.7 | 0.00 | 0.00 | 0.00 | 98 | 1017.8 |
| 20260508003859 | 49 | 352 | 0.9 | 1.7 | 0.00 | 0.00 | 0.00 | 98 | 1017.8 |
| 20260508003658 | 49 | 293 | 0.0 | 1.7 | 0.00 | 0.00 | 0.00 | 98 | 1017.6 |
| 20260508003458 | 49 | 328 | 0.0 | 1.7 | 0.00 | 0.00 | 0.00 | 98 | 1017.6 |
| 20260508003258 | 49 | 25 | 0.0 | 1.7 | 0.00 | 0.00 | 0.00 | 97 | 1017.6 |
| 20260508003057 | 49 | 346 | 0.0 | 1.7 | 0.00 | 0.00 | 0.00 | 97 | 1017.6 |
| 20260508002857 | 49 | 7 | 0.0 | 1.7 | 0.00 | 0.00 | 0.00 | 97 | 1017.6 |
| 20260508002657 | 49 | 76 | 0.0 | 2.6 | 0.00 | 0.00 | 0.00 | 97 | 1017.7 |
| 20260508002457 | 49 | 214 | 0.0 | 2.6 | 0.00 | 0.00 | 0.00 | 97 | 1017.6 |
| 20260508002258 | 49 | 91 | 0.9 | 2.6 | 0.00 | 0.00 | 0.00 | 97 | 1017.6 |
| 20260508002058 | 50 | 173 | 0.0 | 2.6 | 0.00 | 0.00 | 0.00 | 97 | 1017.7 |
| 20260508001858 | 50 | 49 | 0.0 | 2.6 | 0.00 | 0.00 | 0.00 | 97 | 1017.6 |
| 20260508001657 | 50 | 29 | 1.7 | 1.7 | 0.00 | 0.00 | 0.00 | 97 | 1017.6 |
| 20260508001457 | 50 | 130 | 0.0 | 1.7 | 0.00 | 0.00 | 0.00 | 97 | 1017.7 |
| 20260508001257 | 50 | 11 | 0.0 | 1.7 | 0.00 | 0.00 | 0.00 | 97 | 1017.6 |
| 20260508000857 | 50 | 320 | 0.0 | 1.7 | 0.00 | 0.00 | 0.00 | 97 | 1017.8 |
| 20260508000657 | 50 | 269 | 0.0 | 1.7 | 0.00 | 0.00 | 0.00 | 97 | 1017.6 |
| 20260508000458 | 50 | 327 | 0.0 | 1.7 | 0.00 | 0.00 | 0.00 | 97 | 1017.7 |
| 20260508000258 | 50 | 311 | 0.0 | 1.7 | 0.00 | 0.00 | 0.00 | 97 | 1017.8 |
| 20260508000057 | 50 | 159 | 0.0 | 1.7 | 0.00 | 0.00 | 0.00 | 97 | 1017.9 |
| 20260507235857 | 50 | 133 | 0.9 | 1.7 | 0.00 | 0.00 | 0.00 | 97 | 1017.8 |
| 20260507235658 | 50 | 236 | 0.0 | 1.7 | 0.00 | 0.00 | 0.00 | 97 | 1017.8 |
| 20260507235456 | 51 | 25 | 0.0 | 1.7 | 0.00 | 0.00 | 0.00 | 97 | 1017.7 |
| 20260507235258 | 51 | 337 | 0.0 | 1.7 | 0.00 | 0.00 | 0.00 | 97 | 1017.8 |
| 20260507235057 | 51 | 17 | 0.0 | 1.7 | 0.00 | 0.00 | 0.00 | 97 | 1017.8 |
| 20260507234857 | 51 | 213 | 0.0 | 1.7 | 0.00 | 0.00 | 0.00 | 97 | 1017.6 |
| 20260507234657 | 51 | 132 | 0.0 | 1.7 | 0.00 | 0.00 | 0.00 | 97 | 1017.7 |
| 20260507234457 | 51 | 153 | 0.0 | 1.7 | 0.00 | 0.00 | 0.00 | 97 | 1017.7 |
| 20260507234257 | 51 | 271 | 0.0 | 1.7 | 0.00 | 0.00 | 0.00 | 97 | 1017.8 |
| 20260507234058 | 51 | 269 | 0.0 | 1.7 | 0.00 | 0.00 | 0.00 | 97 | 1017.9 |
| 20260507233857 | 51 | 297 | 0.0 | 1.7 | 0.00 | 0.00 | 0.00 | 97 | 1017.6 |
| 20260507233658 | 51 | 303 | 0.0 | 1.7 | 0.00 | 0.00 | 0.00 | 97 | 1017.8 |
| 20260507233457 | 51 | 12 | 0.0 | 1.7 | 0.00 | 0.00 | 0.00 | 97 | 1017.9 |
| 20260507233257 | 51 | 85 | 0.0 | 1.7 | 0.00 | 0.00 | 0.00 | 97 | 1017.6 |
| 20260507233057 | 51 | 180 | 0.9 | 1.7 | 0.00 | 0.00 | 0.00 | 97 | 1018.0 |
| 20260507232857 | 51 | 0 | 0.0 | 1.7 | 0.00 | 0.00 | 0.00 | 97 | 1018.1 |
| 20260507232657 | 51 | 242 | 0.0 | 1.7 | 0.00 | 0.00 | 0.00 | 97 | 1017.9 |
| 20260507232456 | 51 | 310 | 0.0 | 1.7 | 0.00 | 0.00 | 0.00 | 97 | 1018.0 |
| 20260507232257 | 51 | 320 | 0.0 | 1.7 | 0.00 | 0.00 | 0.00 | 97 | 1017.9 |
| 20260507232057 | 51 | 298 | 0.0 | 1.7 | 0.00 | 0.00 | 0.00 | 96 | 1018.0 |
| 20260507231857 | 51 | 55 | 0.0 | 1.7 | 0.00 | 0.00 | 0.00 | 96 | 1017.8 |
| 20260507231658 | 51 | 311 | 0.0 | 1.7 | 0.00 | 0.00 | 0.00 | 96 | 1017.8 |
| 20260507231458 | 51 | 246 | 0.0 | 1.7 | 0.00 | 0.00 | 0.00 | 96 | 1017.8 |
| 20260507231257 | 51 | 245 | 0.0 | 1.7 | 0.00 | 0.00 | 0.00 | 96 | 1018.1 |
| 20260507231058 | 51 | 212 | 0.9 | 1.7 | 0.00 | 0.00 | 0.00 | 96 | 1018.0 |
| 20260507230858 | 51 | 304 | 0.0 | 1.7 | 0.00 | 0.00 | 0.00 | 96 | 1017.9 |
| 20260507230657 | 52 | 235 | 0.0 | 1.7 | 0.00 | 0.00 | 0.00 | 96 | 1018.2 |
| 20260507230457 | 52 | 232 | 0.0 | 1.7 | 0.00 | 0.00 | 0.00 | 96 | 1018.1 |
| 20260507230257 | 52 | 244 | 0.9 | 1.7 | 0.00 | 0.00 | 0.00 | 96 | 1017.9 |
| 20260507230057 | 52 | 282 | 0.0 | 1.7 | 0.00 | 0.00 | 0.00 | 96 | 1017.9 |
| 20260507225857 | 52 | 309 | 0.0 | 0.9 | 0.00 | 0.00 | 0.00 | 96 | 1018.0 |
| 20260507225657 | 52 | 266 | 0.0 | 0.9 | 0.00 | 0.00 | 0.00 | 96 | 1018.1 |
| 20260507225457 | 52 | 230 | 0.0 | 1.7 | 0.00 | 0.00 | 0.00 | 96 | 1018.0 |
| 20260507225258 | 52 | 265 | 0.0 | 1.7 | 0.00 | 0.00 | 0.00 | 96 | 1018.1 |
| 20260507225057 | 52 | 203 | 0.0 | 1.7 | 0.00 | 0.00 | 0.00 | 96 | 1017.9 |
| 20260507224857 | 53 | 266 | 0.0 | 1.7 | 0.00 | 0.00 | 0.00 | 96 | 1018.0 |
| 20260507224657 | 53 | 302 | 0.0 | 1.7 | 0.00 | 0.00 | 0.00 | 96 | 1018.0 |
| 20260507224457 | 53 | 297 | 0.0 | 1.7 | 0.00 | 0.00 | 0.00 | 96 | 1017.9 |
| 20260507224258 | 53 | 44 | 0.0 | 1.7 | 0.00 | 0.00 | 0.00 | 96 | 1018.2 |
| 20260507224058 | 53 | 88 | 0.9 | 0.9 | 0.00 | 0.00 | 0.00 | 96 | 1017.8 |
| 20260507223858 | 53 | 286 | 0.0 | 0.9 | 0.00 | 0.00 | 0.00 | 96 | 1018.1 |
| 20260507223658 | 53 | 246 | 0.0 | 0.9 | 0.00 | 0.00 | 0.00 | 96 | 1017.9 |
| 20260507223457 | 53 | 242 | 0.0 | 0.9 | 0.00 | 0.00 | 0.00 | 96 | 1018.0 |
| 20260507223258 | 53 | 312 | 0.0 | 0.9 | 0.00 | 0.00 | 0.00 | 96 | 1017.9 |
| 20260507223057 | 53 | 212 | 0.0 | 0.9 | 0.00 | 0.00 | 0.00 | 96 | 1017.9 |
| 20260507222857 | 54 | 326 | 0.0 | 0.9 | 0.00 | 0.00 | 0.00 | 96 | 1018.1 |
| 20260507222657 | 54 | 0 | 0.0 | 0.9 | 0.00 | 0.00 | 0.00 | 96 | 1017.8 |
| 20260507222457 | 54 | 329 | 0.0 | 0.9 | 0.00 | 0.00 | 0.00 | 96 | 1018.0 |
| 20260507222257 | 54 | 304 | 0.0 | 1.7 | 0.00 | 0.00 | 0.00 | 96 | 1017.9 |
| 20260507222057 | 54 | 231 | 0.0 | 1.7 | 0.00 | 0.00 | 0.00 | 96 | 1018.0 |
| 20260507221857 | 54 | 39 | 0.0 | 1.7 | 0.00 | 0.00 | 0.00 | 95 | 1017.9 |
| 20260507221657 | 54 | 135 | 0.0 | 1.7 | 0.00 | 0.00 | 0.00 | 95 | 1017.8 |
| 20260507221457 | 54 | 139 | 0.0 | 1.7 | 0.00 | 0.00 | 0.00 | 95 | 1017.9 |
| 20260507221257 | 54 | 269 | 0.0 | 0.9 | 0.00 | 0.00 | 0.00 | 95 | 1018.0 |
| 20260507221058 | 54 | 217 | 0.0 | 0.9 | 0.00 | 0.00 | 0.00 | 95 | 1018.0 |
| 20260507220858 | 54 | 336 | 0.0 | 0.9 | 0.00 | 0.00 | 0.00 | 95 | 1017.9 |
| 20260507220658 | 54 | 297 | 0.0 | 0.9 | 0.00 | 0.00 | 0.00 | 95 | 1018.2 |
| 20260507220458 | 54 | 332 | 0.0 | 0.9 | 0.00 | 0.00 | 0.00 | 95 | 1018.0 |
| 20260507220258 | 54 | 242 | 0.0 | 0.9 | 0.00 | 0.00 | 0.00 | 95 | 1018.0 |
| 20260507220058 | 55 | 304 | 0.0 | 0.9 | 0.00 | 0.00 | 0.00 | 95 | 1018.0 |
| 20260507215858 | 55 | 142 | 0.0 | 0.9 | 0.00 | 0.00 | 0.00 | 95 | 1018.0 |
| 20260507215658 | 55 | 135 | 0.0 | 0.9 | 0.00 | 0.00 | 0.00 | 95 | 1017.8 |
| 20260507215445 | 55 | 291 | 0.0 | 1.7 | 0.00 | 0.00 | 0.00 | 95 | 1017.8 |
| 20260507215245 | 55 | 297 | 0.0 | 1.7 | 0.00 | 0.00 | 0.00 | 95 | 1018.1 |
| 20260507215046 | 55 | 147 | 0.0 | 1.7 | 0.00 | 0.00 | 0.00 | 95 | 1018.0 |
| 20260507214846 | 55 | 149 | 0.0 | 1.7 | 0.00 | 0.00 | 0.00 | 94 | 1017.9 |
| 20260507214647 | 55 | 129 | 0.0 | 1.7 | 0.00 | 0.00 | 0.00 | 94 | 1018.0 |
| 20260507214445 | 55 | 143 | 0.0 | 1.7 | 0.00 | 0.00 | 0.00 | 94 | 1017.8 |
| 20260507214245 | 55 | 137 | 0.0 | 1.7 | 0.00 | 0.00 | 0.00 | 94 | 1017.6 |
| 20260507214045 | 55 | 122 | 0.0 | 1.7 | 0.00 | 0.00 | 0.00 | 94 | 1017.8 |
| 20260507213845 | 56 | 178 | 0.0 | 1.7 | 0.00 | 0.00 | 0.00 | 93 | 1017.8 |
| 20260507213645 | 56 | 221 | 0.0 | 1.7 | 0.00 | 0.00 | 0.00 | 93 | 1017.9 |
| 20260507213446 | 56 | 195 | 0.0 | 1.7 | 0.00 | 0.00 | 0.00 | 92 | 1017.7 |
| 20260507213245 | 56 | 171 | 1.7 | 1.7 | 0.00 | 0.00 | 0.00 | 92 | 1017.5 |
| 20260507213045 | 56 | 228 | 0.9 | 1.7 | 0.00 | 0.00 | 0.00 | 92 | 1017.7 |
| 20260507212846 | 56 | 243 | 0.0 | 1.7 | 0.00 | 0.00 | 0.00 | 92 | 1017.7 |
| 20260507212646 | 57 | 210 | 0.0 | 1.7 | 0.00 | 0.00 | 0.00 | 91 | 1017.7 |
| 20260507212445 | 57 | 293 | 0.0 | 1.7 | 0.00 | 0.00 | 0.00 | 91 | 1017.7 |
| 20260507212245 | 57 | 321 | 0.0 | 1.7 | 0.00 | 0.00 | 0.00 | 91 | 1017.6 |
| 20260507212045 | 57 | 270 | 1.7 | 1.7 | 0.00 | 0.00 | 0.00 | 91 | 1017.6 |
| 20260507211845 | 57 | 116 | 0.0 | 1.7 | 0.00 | 0.00 | 0.00 | 91 | 1017.5 |
| 20260507211645 | 57 | 272 | 0.0 | 1.7 | 0.00 | 0.00 | 0.00 | 91 | 1017.6 |
| 20260507211446 | 57 | 231 | 0.0 | 1.7 | 0.00 | 0.00 | 0.00 | 91 | 1017.9 |
| 20260507211245 | 58 | 249 | 0.0 | 1.7 | 0.00 | 0.00 | 0.00 | 91 | 1017.8 |
| 20260507211045 | 58 | 129 | 0.0 | 1.7 | 0.00 | 0.00 | 0.00 | 91 | 1017.7 |
| 20260507210845 | 58 | 52 | 0.0 | 1.7 | 0.00 | 0.00 | 0.00 | 91 | 1017.7 |
| 20260507210645 | 58 | 37 | 0.0 | 1.7 | 0.00 | 0.00 | 0.00 | 90 | 1017.7 |
| 20260507210447 | 58 | 255 | 0.0 | 1.7 | 0.00 | 0.00 | 0.00 | 90 | 1017.8 |
| 20260507210245 | 58 | 268 | 0.0 | 1.7 | 0.00 | 0.00 | 0.00 | 90 | 1017.7 |
| 20260507210046 | 58 | 315 | 0.0 | 1.7 | 0.00 | 0.00 | 0.00 | 90 | 1017.6 |
| 20260507205845 | 58 | 9 | 0.9 | 1.7 | 0.00 | 0.00 | 0.00 | 91 | 1017.7 |
| 20260507205646 | 58 | 49 | 0.9 | 1.7 | 0.00 | 0.00 | 0.00 | 91 | 1017.8 |
| 20260507205445 | 58 | 38 | 0.9 | 1.7 | 0.00 | 0.00 | 0.00 | 92 | 1017.8 |
| 20260507205246 | 58 | 42 | 1.7 | 1.7 | 0.00 | 0.00 | 0.00 | 92 | 1017.7 |
| 20260507205045 | 58 | 145 | 0.0 | 1.7 | 0.00 | 0.00 | 0.00 | 92 | 1017.7 |
| 20260507204845 | 58 | 282 | 0.0 | 1.7 | 0.00 | 0.00 | 0.00 | 92 | 1017.7 |
| 20260507204645 | 58 | 37 | 0.0 | 1.7 | 0.00 | 0.00 | 0.00 | 92 | 1017.8 |
| 20260507204446 | 58 | 354 | 0.0 | 1.7 | 0.00 | 0.00 | 0.00 | 92 | 1017.7 |
| 20260507204246 | 58 | 38 | 0.0 | 1.7 | 0.00 | 0.00 | 0.00 | 92 | 1017.6 |
| 20260507204045 | 58 | 58 | 0.0 | 1.7 | 0.00 | 0.00 | 0.00 | 92 | 1017.7 |
| 20260507203846 | 58 | 185 | 0.0 | 1.7 | 0.00 | 0.00 | 0.00 | 92 | 1017.6 |
| 20260507203645 | 58 | 154 | 0.0 | 1.7 | 0.00 | 0.00 | 0.00 | 91 | 1017.5 |
| 20260507203446 | 59 | 212 | 0.0 | 1.7 | 0.00 | 0.00 | 0.00 | 90 | 1017.5 |
| 20260507203246 | 59 | 185 | 0.0 | 1.7 | 0.00 | 0.00 | 0.00 | 90 | 1017.6 |
| 20260507203033 | 59 | 183 | 0.9 | 0.9 | 0.00 | 0.00 | 0.00 | 89 | 1017.6 |
| 20260507202833 | 59 | 315 | 0.0 | 0.9 | 0.00 | 0.00 | 0.00 | 89 | 1017.4 |
| 20260507202634 | 59 | 213 | 0.0 | 0.9 | 0.00 | 0.00 | 0.00 | 89 | 1017.4 |
| 20260507202433 | 59 | 224 | 0.0 | 1.7 | 0.00 | 0.00 | 0.00 | 89 | 1017.5 |
| 20260507202233 | 59 | 193 | 0.0 | 1.7 | 0.00 | 0.00 | 0.00 | 89 | 1017.4 |
| 20260507202033 | 59 | 180 | 0.0 | 1.7 | 0.00 | 0.00 | 0.00 | 89 | 1017.8 |
| 20260507201835 | 59 | 174 | 0.0 | 1.7 | 0.00 | 0.00 | 0.00 | 89 | 1017.5 |
| 20260507201634 | 59 | 301 | 0.0 | 1.7 | 0.00 | 0.00 | 0.00 | 89 | 1017.6 |
| 20260507201433 | 59 | 275 | 0.0 | 0.9 | 0.00 | 0.00 | 0.00 | 89 | 1017.4 |
| 20260507201233 | 59 | 238 | 0.0 | 1.7 | 0.00 | 0.00 | 0.00 | 89 | 1017.5 |
| 20260507201034 | 59 | 220 | 0.0 | 1.7 | 0.00 | 0.00 | 0.00 | 89 | 1017.5 |
| 20260507200833 | 59 | 242 | 0.0 | 1.7 | 0.00 | 0.00 | 0.00 | 89 | 1017.6 |
| 20260507200634 | 60 | 194 | 0.9 | 1.7 | 0.00 | 0.00 | 0.00 | 89 | 1017.5 |
| 20260507200433 | 60 | 199 | 0.9 | 1.7 | 0.00 | 0.00 | 0.00 | 89 | 1017.4 |
| 20260507200234 | 60 | 227 | 0.9 | 1.7 | 0.00 | 0.00 | 0.00 | 89 | 1017.5 |
| 20260507195833 | 60 | 315 | 0.0 | 1.7 | 0.00 | 0.00 | 0.00 | 89 | 1017.5 |
| 20260507195634 | 60 | 317 | 0.0 | 1.7 | 0.00 | 0.00 | 0.00 | 89 | 1017.7 |
| 20260507195433 | 60 | 326 | 0.0 | 1.7 | 0.00 | 0.00 | 0.00 | 88 | 1017.4 |
| 20260507195234 | 60 | 325 | 0.0 | 0.9 | 0.00 | 0.00 | 0.00 | 88 | 1017.5 |
| 20260507195033 | 60 | 239 | 0.0 | 1.7 | 0.00 | 0.00 | 0.00 | 88 | 1017.6 |
| 20260507194833 | 60 | 204 | 0.0 | 1.7 | 0.00 | 0.00 | 0.00 | 88 | 1017.5 |
| 20260507194633 | 60 | 315 | 0.0 | 1.7 | 0.00 | 0.00 | 0.00 | 87 | 1017.7 |
| 20260507194433 | 60 | 311 | 0.0 | 1.7 | 0.00 | 0.00 | 0.00 | 88 | 1017.6 |
| 20260507194234 | 60 | 269 | 0.0 | 1.7 | 0.00 | 0.00 | 0.00 | 88 | 1017.4 |
| 20260507194033 | 60 | 224 | 0.9 | 0.9 | 0.00 | 0.00 | 0.00 | 87 | 1017.4 |
| 20260507193833 | 60 | 206 | 0.0 | 0.9 | 0.00 | 0.00 | 0.00 | 87 | 1017.6 |
| 20260507193634 | 60 | 218 | 0.0 | 1.7 | 0.00 | 0.00 | 0.00 | 87 | 1017.5 |
| 20260507193433 | 60 | 264 | 0.0 | 1.7 | 0.00 | 0.00 | 0.00 | 87 | 1017.6 |
| 20260507193233 | 60 | 13 | 0.0 | 1.7 | 0.00 | 0.00 | 0.00 | 87 | 1017.4 |
| 20260507193033 | 60 | 6 | 0.0 | 1.7 | 0.00 | 0.00 | 0.00 | 87 | 1017.4 |
| 20260507192834 | 60 | 210 | 0.0 | 1.7 | 0.00 | 0.00 | 0.00 | 87 | 1017.8 |
| 20260507192633 | 60 | 215 | 0.9 | 1.7 | 0.00 | 0.00 | 0.00 | 87 | 1017.5 |
| 20260507192434 | 61 | 236 | 0.0 | 1.7 | 0.00 | 0.00 | 0.00 | 86 | 1017.6 |
| 20260507192234 | 61 | 203 | 0.0 | 1.7 | 0.00 | 0.00 | 0.00 | 86 | 1017.5 |
| 20260507192033 | 61 | 164 | 0.0 | 1.7 | 0.00 | 0.00 | 0.00 | 86 | 1017.8 |
| 20260507191834 | 61 | 343 | 0.0 | 1.7 | 0.00 | 0.00 | 0.00 | 86 | 1017.5 |
| 20260507191634 | 61 | 242 | 0.0 | 1.7 | 0.00 | 0.00 | 0.00 | 86 | 1017.5 |
| 20260507191433 | 61 | 192 | 0.9 | 1.7 | 0.00 | 0.00 | 0.00 | 85 | 1017.7 |
| 20260507191233 | 62 | 201 | 1.7 | 1.7 | 0.00 | 0.00 | 0.00 | 84 | 1017.3 |
| 20260507191033 | 62 | 191 | 0.9 | 1.7 | 0.00 | 0.00 | 0.00 | 84 | 1017.4 |
| 20260507190833 | 62 | 214 | 0.0 | 0.9 | 0.00 | 0.00 | 0.00 | 84 | 1017.4 |
| 20260507190633 | 62 | 135 | 0.0 | 0.9 | 0.00 | 0.00 | 0.00 | 84 | 1017.3 |
| 20260507190433 | 62 | 164 | 0.0 | 0.9 | 0.00 | 0.00 | 0.00 | 83 | 1017.3 |
| 20260507190233 | 62 | 183 | 0.0 | 0.9 | 0.00 | 0.00 | 0.00 | 83 | 1017.5 |
| 20260507190034 | 62 | 180 | 0.0 | 0.9 | 0.00 | 0.00 | 0.00 | 82 | 1017.2 |
| 20260507185833 | 62 | 180 | 0.0 | 0.9 | 0.00 | 0.00 | 0.00 | 82 | 1017.3 |
| 20260507185633 | 62 | 269 | 0.0 | 1.7 | 0.00 | 0.00 | 0.00 | 82 | 1017.1 |
| 20260507185434 | 63 | 232 | 0.0 | 1.7 | 0.00 | 0.00 | 0.00 | 81 | 1017.3 |
| 20260507185233 | 63 | 279 | 0.0 | 1.7 | 0.00 | 0.00 | 0.00 | 81 | 1017.4 |
| 20260507185033 | 62 | 201 | 0.0 | 1.7 | 0.00 | 0.00 | 0.00 | 81 | 1017.4 |
| 20260507184833 | 62 | 279 | 0.0 | 1.7 | 0.00 | 0.00 | 0.00 | 81 | 1017.3 |
| 20260507184633 | 62 | 321 | 0.0 | 0.9 | 0.00 | 0.00 | 0.00 | 81 | 1017.3 |
| 20260507184433 | 62 | 174 | 0.0 | 0.9 | 0.00 | 0.00 | 0.00 | 81 | 1017.1 |
| 20260507184233 | 62 | 148 | 0.0 | 0.9 | 0.00 | 0.00 | 0.00 | 81 | 1017.3 |
| 20260507184033 | 62 | 50 | 0.0 | 1.7 | 0.00 | 0.00 | 0.00 | 81 | 1017.1 |
| 20260507183834 | 63 | 191 | 0.0 | 1.7 | 0.00 | 0.00 | 0.00 | 81 | 1017.1 |
| 20260507183634 | 63 | 186 | 0.0 | 1.7 | 0.00 | 0.00 | 0.00 | 81 | 1017.0 |
| 20260507183434 | 63 | 225 | 0.0 | 1.7 | 0.00 | 0.00 | 0.00 | 80 | 1017.0 |
| 20260507183233 | 63 | 180 | 0.0 | 1.7 | 0.00 | 0.00 | 0.00 | 80 | 1017.2 |
| 20260507183036 | 63 | 202 | 0.9 | 1.7 | 0.00 | 0.00 | 0.00 | 79 | 1017.1 |
| 20260507182834 | 63 | 197 | 0.9 | 1.7 | 0.00 | 0.00 | 0.00 | 79 | 1017.1 |
| 20260507182634 | 63 | 242 | 0.0 | 1.7 | 0.00 | 0.00 | 0.00 | 79 | 1017.3 |
| 20260507182433 | 63 | 224 | 0.0 | 1.7 | 0.00 | 0.00 | 0.00 | 78 | 1017.3 |
| 20260507182234 | 63 | 197 | 0.0 | 1.7 | 0.00 | 0.00 | 0.00 | 78 | 1017.1 |
| 20260507182033 | 63 | 256 | 0.0 | 1.7 | 0.00 | 0.00 | 0.00 | 78 | 1017.1 |
| 20260507181832 | 63 | 293 | 0.9 | 0.9 | 0.00 | 0.00 | 0.00 | 78 | 1017.2 |
| 20260507181634 | 63 | 185 | 0.0 | 1.7 | 0.00 | 0.00 | 0.00 | 78 | 1017.0 |
| 20260507181433 | 63 | 185 | 0.0 | 1.7 | 0.00 | 0.00 | 0.00 | 77 | 1017.1 |
| 20260507181235 | 63 | 195 | 0.0 | 1.7 | 0.00 | 0.00 | 0.00 | 77 | 1017.1 |
| 20260507181034 | 63 | 217 | 0.0 | 1.7 | 0.00 | 0.00 | 0.00 | 78 | 1017.2 |
| 20260507180810 | 64 | 233 | 0.0 | 1.7 | 0.00 | 0.00 | 0.00 | 77 | 1017.0 |
| 20260507180609 | 64 | 181 | 0.0 | 1.7 | 0.00 | 0.00 | 0.00 | 77 | 1017.0 |
| 20260507180410 | 64 | 199 | 0.9 | 1.7 | 0.00 | 0.00 | 0.00 | 77 | 1017.1 |
| 20260507180209 | 64 | 188 | 0.9 | 1.7 | 0.00 | 0.00 | 0.00 | 76 | 1017.0 |
| 20260507180010 | 64 | 180 | 0.0 | 0.9 | 0.00 | 0.00 | 0.00 | 74 | 1017.0 |
| 20260507175810 | 65 | 150 | 0.0 | 1.7 | 0.00 | 0.00 | 0.00 | 74 | 1016.8 |
| 20260507175609 | 65 | 22 | 0.0 | 1.7 | 0.00 | 0.00 | 0.00 | 74 | 1016.7 |
| 20260507175409 | 65 | 22 | 0.0 | 1.7 | 0.00 | 0.00 | 0.00 | 74 | 1016.7 |
| 20260507175210 | 64 | 15 | 0.0 | 1.7 | 0.00 | 0.00 | 0.00 | 74 | 1016.8 |
| 20260507174945 | 64 | 162 | 0.0 | 1.7 | 0.00 | 0.00 | 0.00 | 74 | 1017.1 |
| 20260507174745 | 64 | 3 | 0.0 | 1.7 | 0.00 | 0.00 | 0.00 | 74 | 1016.7 |
| 20260507174546 | 64 | 166 | 0.0 | 1.7 | 0.00 | 0.00 | 0.00 | 74 | 1016.6 |
| 20260507174346 | 64 | 201 | 0.0 | 1.7 | 0.00 | 0.00 | 0.00 | 74 | 1017.0 |
| 20260507174145 | 65 | 241 | 0.9 | 1.7 | 0.00 | 0.00 | 0.00 | 73 | 1016.7 |
| 20260507173946 | 65 | 273 | 1.7 | 1.7 | 0.00 | 0.00 | 0.00 | 73 | 1016.8 |
| 20260507173746 | 65 | 227 | 0.9 | 1.7 | 0.00 | 0.00 | 0.00 | 73 | 1016.8 |
| 20260507173545 | 65 | 276 | 0.9 | 1.7 | 0.00 | 0.00 | 0.00 | 74 | 1016.8 |
| 20260507173345 | 65 | 241 | 0.0 | 1.7 | 0.00 | 0.00 | 0.00 | 74 | 1016.6 |
| 20260507173145 | 65 | 209 | 0.0 | 2.6 | 0.00 | 0.00 | 0.00 | 73 | 1016.6 |
| 20260507172945 | 65 | 262 | 0.9 | 2.6 | 0.00 | 0.00 | 0.00 | 73 | 1016.7 |
| 20260507172745 | 65 | 329 | 0.9 | 2.6 | 0.00 | 0.00 | 0.00 | 74 | 1016.6 |
| 20260507172546 | 65 | 313 | 0.0 | 2.6 | 0.00 | 0.00 | 0.00 | 74 | 1016.5 |
| 20260507172345 | 65 | 257 | 0.0 | 2.6 | 0.00 | 0.00 | 0.00 | 74 | 1016.4 |
| 20260507172145 | 65 | 208 | 0.9 | 1.7 | 0.00 | 0.00 | 0.00 | 73 | 1016.5 |
| 20260507171945 | 65 | 209 | 0.9 | 1.7 | 0.00 | 0.00 | 0.00 | 73 | 1016.6 |
| 20260507171745 | 65 | 278 | 0.9 | 1.7 | 0.00 | 0.00 | 0.00 | 73 | 1016.8 |
| 20260507171545 | 65 | 224 | 0.0 | 1.7 | 0.00 | 0.00 | 0.00 | 73 | 1016.6 |
| 20260507171347 | 65 | 258 | 1.7 | 1.7 | 0.00 | 0.00 | 0.00 | 73 | 1016.7 |
| 20260507171146 | 65 | 276 | 0.9 | 2.6 | 0.00 | 0.00 | 0.00 | 72 | 1016.7 |
| 20260507170946 | 65 | 241 | 1.7 | 2.6 | 0.00 | 0.00 | 0.00 | 72 | 1016.7 |
| 20260507170746 | 65 | 217 | 0.0 | 2.6 | 0.00 | 0.00 | 0.00 | 72 | 1016.5 |
| 20260507170546 | 65 | 214 | 0.9 | 2.6 | 0.00 | 0.00 | 0.00 | 72 | 1016.6 |
| 20260507170346 | 65 | 248 | 1.7 | 2.6 | 0.00 | 0.00 | 0.00 | 72 | 1016.6 |
| 20260507170145 | 65 | 188 | 0.0 | 2.6 | 0.00 | 0.00 | 0.00 | 72 | 1016.7 |
| 20260507165946 | 65 | 197 | 0.0 | 2.6 | 0.00 | 0.00 | 0.00 | 72 | 1016.7 |
| 20260507165746 | 65 | 215 | 0.0 | 2.6 | 0.00 | 0.00 | 0.00 | 72 | 1016.7 |
| 20260507165546 | 65 | 212 | 1.7 | 2.6 | 0.00 | 0.00 | 0.00 | 71 | 1016.6 |
| 20260507165346 | 65 | 200 | 2.6 | 2.6 | 0.00 | 0.00 | 0.00 | 71 | 1016.7 |
| 20260507165146 | 66 | 219 | 0.0 | 2.6 | 0.00 | 0.00 | 0.00 | 71 | 1016.8 |
| 20260507164946 | 66 | 220 | 1.7 | 2.6 | 0.00 | 0.00 | 0.00 | 71 | 1016.7 |
| 20260507164746 | 66 | 224 | 0.9 | 2.6 | 0.00 | 0.00 | 0.00 | 71 | 1016.8 |
| 20260507164547 | 66 | 201 | 0.0 | 2.6 | 0.00 | 0.00 | 0.00 | 71 | 1016.8 |
| 20260507164346 | 66 | 216 | 1.7 | 2.6 | 0.00 | 0.00 | 0.00 | 71 | 1016.7 |
| 20260507164145 | 66 | 215 | 1.7 | 2.6 | 0.00 | 0.00 | 0.00 | 70 | 1016.7 |
| 20260507163945 | 66 | 190 | 0.0 | 2.6 | 0.00 | 0.00 | 0.00 | 69 | 1016.6 |
| 20260507163745 | 66 | 251 | 1.7 | 2.6 | 0.00 | 0.00 | 0.00 | 69 | 1016.6 |
| 20260507163545 | 67 | 265 | 1.7 | 2.6 | 0.00 | 0.00 | 0.00 | 68 | 1016.5 |
| 20260507163345 | 66 | 255 | 0.9 | 2.6 | 0.00 | 0.00 | 0.00 | 69 | 1016.8 |
| 20260507163147 | 66 | 287 | 1.7 | 2.6 | 0.00 | 0.00 | 0.00 | 69 | 1016.8 |
| 20260507162945 | 66 | 249 | 1.7 | 2.6 | 0.00 | 0.00 | 0.00 | 69 | 1016.6 |
| 20260507162745 | 67 | 210 | 0.9 | 2.6 | 0.00 | 0.00 | 0.00 | 69 | 1016.6 |
| 20260507162546 | 67 | 223 | 1.7 | 3.5 | 0.00 | 0.00 | 0.00 | 69 | 1016.6 |
| 20260507162346 | 67 | 263 | 0.9 | 4.3 | 0.00 | 0.00 | 0.00 | 69 | 1016.7 |
| 20260507162146 | 67 | 231 | 0.0 | 4.3 | 0.00 | 0.00 | 0.00 | 69 | 1016.6 |
| 20260507161946 | 67 | 252 | 1.7 | 4.3 | 0.00 | 0.00 | 0.00 | 69 | 1016.4 |
| 20260507161746 | 66 | 246 | 1.7 | 4.3 | 0.00 | 0.00 | 0.00 | 70 | 1016.7 |
| 20260507161545 | 66 | 298 | 1.7 | 4.3 | 0.00 | 0.00 | 0.00 | 70 | 1016.5 |
| 20260507161346 | 66 | 264 | 0.9 | 3.5 | 0.00 | 0.00 | 0.00 | 71 | 1016.5 |
| 20260507161146 | 66 | 189 | 0.0 | 3.5 | 0.00 | 0.00 | 0.00 | 71 | 1016.8 |
| 20260507160946 | 66 | 198 | 1.7 | 3.5 | 0.00 | 0.00 | 0.00 | 71 | 1016.5 |
| 20260507160746 | 67 | 178 | 2.6 | 3.5 | 0.00 | 0.00 | 0.00 | 70 | 1016.5 |
| 20260507160545 | 67 | 229 | 1.7 | 3.5 | 0.00 | 0.00 | 0.00 | 70 | 1016.6 |
| 20260507160345 | 67 | 230 | 0.9 | 3.5 | 0.00 | 0.00 | 0.00 | 70 | 1016.5 |
| 20260507160145 | 67 | 224 | 0.9 | 3.5 | 0.00 | 0.00 | 0.00 | 70 | 1016.6 |
| 20260507155945 | 67 | 210 | 0.9 | 3.5 | 0.00 | 0.00 | 0.00 | 71 | 1016.6 |
| 20260507155745 | 67 | 192 | 0.9 | 3.5 | 0.00 | 0.00 | 0.00 | 70 | 1016.6 |
| 20260507155546 | 67 | 230 | 0.9 | 3.5 | 0.00 | 0.00 | 0.00 | 70 | 1016.7 |
| 20260507155346 | 67 | 278 | 1.7 | 3.5 | 0.00 | 0.00 | 0.00 | 70 | 1016.7 |
| 20260507155146 | 67 | 244 | 0.0 | 2.6 | 0.00 | 0.00 | 0.00 | 69 | 1016.5 |
| 20260507154947 | 67 | 238 | 1.7 | 2.6 | 0.00 | 0.00 | 0.00 | 69 | 1016.5 |
| 20260507154745 | 67 | 199 | 1.7 | 2.6 | 0.00 | 0.00 | 0.00 | 69 | 1016.4 |
| 20260507154545 | 67 | 213 | 0.9 | 2.6 | 0.00 | 0.00 | 0.00 | 68 | 1016.5 |
| 20260507154345 | 67 | 229 | 1.7 | 2.6 | 0.00 | 0.00 | 0.00 | 68 | 1016.6 |
| 20260507154145 | 67 | 216 | 0.9 | 2.6 | 0.00 | 0.00 | 0.00 | 68 | 1016.4 |
| 20260507153945 | 67 | 201 | 0.9 | 3.5 | 0.00 | 0.00 | 0.00 | 67 | 1016.5 |
| 20260507153745 | 67 | 184 | 1.7 | 3.5 | 0.00 | 0.00 | 0.00 | 68 | 1016.6 |
| 20260507153533 | 67 | 204 | 1.7 | 3.5 | 0.00 | 0.00 | 0.00 | 67 | 1016.6 |
| 20260507153333 | 67 | 162 | 1.7 | 3.5 | 0.00 | 0.00 | 0.00 | 67 | 1016.5 |
| 20260507153133 | 67 | 233 | 1.7 | 3.5 | 0.00 | 0.00 | 0.00 | 66 | 1016.6 |
| 20260507152933 | 67 | 214 | 1.7 | 3.5 | 0.00 | 0.00 | 0.00 | 65 | 1016.5 |
| 20260507152733 | 67 | 226 | 0.9 | 3.5 | 0.00 | 0.00 | 0.00 | 66 | 1016.6 |
| 20260507152533 | 67 | 229 | 1.7 | 3.5 | 0.00 | 0.00 | 0.00 | 66 | 1016.7 |
| 20260507152333 | 67 | 222 | 0.9 | 3.5 | 0.00 | 0.00 | 0.00 | 65 | 1016.5 |
| 20260507152133 | 67 | 227 | 1.7 | 3.5 | 0.00 | 0.00 | 0.00 | 65 | 1016.7 |
| 20260507151933 | 67 | 199 | 1.7 | 3.5 | 0.00 | 0.00 | 0.00 | 65 | 1016.6 |
| 20260507151733 | 68 | 203 | 0.9 | 3.5 | 0.00 | 0.00 | 0.00 | 65 | 1016.4 |
| 20260507151533 | 68 | 254 | 1.7 | 3.5 | 0.00 | 0.00 | 0.00 | 64 | 1016.6 |
| 20260507151333 | 68 | 230 | 1.7 | 2.6 | 0.00 | 0.00 | 0.00 | 64 | 1016.6 |
| 20260507151133 | 68 | 187 | 1.7 | 2.6 | 0.00 | 0.00 | 0.00 | 64 | 1016.6 |
| 20260507150933 | 68 | 238 | 0.9 | 3.5 | 0.00 | 0.00 | 0.00 | 65 | 1016.6 |
| 20260507150733 | 68 | 194 | 1.7 | 3.5 | 0.00 | 0.00 | 0.00 | 64 | 1016.6 |
| 20260507150533 | 68 | 191 | 0.9 | 3.5 | 0.00 | 0.00 | 0.00 | 64 | 1016.7 |
| 20260507150334 | 68 | 190 | 0.0 | 3.5 | 0.00 | 0.00 | 0.00 | 64 | 1016.6 |
| 20260507150134 | 68 | 191 | 1.7 | 3.5 | 0.00 | 0.00 | 0.00 | 63 | 1016.8 |
| 20260507145933 | 68 | 209 | 1.7 | 3.5 | 0.00 | 0.00 | 0.00 | 63 | 1016.6 |
| 20260507145733 | 68 | 233 | 0.9 | 3.5 | 0.00 | 0.00 | 0.00 | 63 | 1016.8 |
| 20260507145533 | 68 | 235 | 1.7 | 4.3 | 0.00 | 0.00 | 0.00 | 62 | 1016.6 |
| 20260507145333 | 68 | 209 | 0.9 | 4.3 | 0.00 | 0.00 | 0.00 | 63 | 1016.8 |
| 20260507145133 | 68 | 211 | 0.9 | 4.3 | 0.00 | 0.00 | 0.00 | 63 | 1017.1 |
| 20260507144933 | 68 | 214 | 2.6 | 4.3 | 0.00 | 0.00 | 0.00 | 62 | 1016.6 |
| 20260507144733 | 68 | 252 | 1.7 | 4.3 | 0.00 | 0.00 | 0.00 | 62 | 1016.8 |
| 20260507144534 | 68 | 211 | 0.9 | 4.3 | 0.00 | 0.00 | 0.00 | 62 | 1016.7 |
| 20260507144333 | 68 | 269 | 0.0 | 4.3 | 0.00 | 0.00 | 0.00 | 62 | 1016.7 |
| 20260507144133 | 68 | 284 | 2.6 | 4.3 | 0.00 | 0.00 | 0.00 | 61 | 1016.8 |
| 20260507143933 | 68 | 195 | 1.7 | 7.0 | 0.00 | 0.00 | 0.00 | 61 | 1016.5 |
| 20260507143733 | 68 | 241 | 2.6 | 7.0 | 0.00 | 0.00 | 0.00 | 61 | 1016.7 |
| 20260507143533 | 69 | 235 | 2.6 | 7.0 | 0.00 | 0.00 | 0.00 | 61 | 1017.0 |
| 20260507143333 | 69 | 252 | 4.3 | 7.0 | 0.00 | 0.00 | 0.00 | 61 | 1016.5 |
| 20260507143133 | 69 | 255 | 1.7 | 7.0 | 0.00 | 0.00 | 0.00 | 61 | 1016.8 |
| 20260507142933 | 69 | 243 | 1.7 | 5.2 | 0.00 | 0.00 | 0.00 | 60 | 1017.0 |
| 20260507142733 | 69 | 265 | 1.7 | 5.2 | 0.00 | 0.00 | 0.00 | 59 | 1016.6 |
| 20260507142533 | 69 | 237 | 1.7 | 5.2 | 0.00 | 0.00 | 0.00 | 61 | 1016.7 |
| 20260507142333 | 69 | 241 | 3.5 | 6.1 | 0.00 | 0.00 | 0.00 | 60 | 1016.7 |
| 20260507142135 | 69 | 292 | 2.6 | 6.1 | 0.00 | 0.00 | 0.00 | 60 | 1017.0 |
| 20260507141934 | 69 | 279 | 1.7 | 6.1 | 0.00 | 0.00 | 0.00 | 60 | 1017.0 |
| 20260507141733 | 69 | 203 | 2.6 | 7.0 | 0.00 | 0.00 | 0.00 | 61 | 1016.7 |
| 20260507141533 | 69 | 252 | 3.5 | 7.0 | 0.00 | 0.00 | 0.00 | 61 | 1016.8 |
| 20260507141333 | 69 | 264 | 1.7 | 7.0 | 0.00 | 0.00 | 0.00 | 60 | 1016.6 |
| 20260507141134 | 69 | 225 | 5.2 | 7.0 | 0.00 | 0.00 | 0.00 | 60 | 1016.8 |
| 20260507140933 | 69 | 234 | 2.6 | 7.0 | 0.00 | 0.00 | 0.00 | 60 | 1017.0 |
| 20260507140733 | 69 | 237 | 4.3 | 7.0 | 0.00 | 0.00 | 0.00 | 59 | 1016.8 |
| 20260507140533 | 69 | 251 | 5.2 | 7.8 | 0.00 | 0.00 | 0.00 | 58 | 1016.6 |
| 20260507140333 | 69 | 220 | 4.3 | 7.8 | 0.00 | 0.00 | 0.00 | 58 | 1016.8 |
| 20260507140133 | 69 | 230 | 3.5 | 7.8 | 0.00 | 0.00 | 0.00 | 59 | 1016.7 |
| 20260507135933 | 69 | 229 | 1.7 | 7.8 | 0.00 | 0.00 | 0.00 | 59 | 1017.1 |
| 20260507135733 | 69 | 246 | 3.5 | 8.7 | 0.00 | 0.00 | 0.00 | 60 | 1016.7 |
| 20260507135533 | 69 | 212 | 1.7 | 8.7 | 0.00 | 0.00 | 0.00 | 61 | 1016.8 |
| 20260507135333 | 69 | 229 | 0.9 | 8.7 | 0.00 | 0.00 | 0.00 | 61 | 1016.6 |
| 20260507135133 | 69 | 233 | 2.6 | 8.7 | 0.00 | 0.00 | 0.00 | 62 | 1016.7 |
| 20260507134934 | 69 | 233 | 4.3 | 8.7 | 0.00 | 0.00 | 0.00 | 61 | 1016.6 |
| 20260507134734 | 69 | 252 | 0.9 | 7.8 | 0.00 | 0.00 | 0.00 | 61 | 1016.5 |
| 20260507134534 | 69 | 234 | 1.7 | 8.7 | 0.00 | 0.00 | 0.00 | 61 | 1016.6 |
| 20260507134334 | 70 | 274 | 0.9 | 8.7 | 0.00 | 0.00 | 0.00 | 61 | 1016.8 |
| 20260507134134 | 70 | 276 | 1.7 | 8.7 | 0.00 | 0.00 | 0.00 | 60 | 1016.5 |
| 20260507133935 | 70 | 235 | 4.3 | 8.7 | 0.00 | 0.00 | 0.00 | 59 | 1016.6 |
| 20260507133739 | 70 | 268 | 2.6 | 8.7 | 0.00 | 0.00 | 0.00 | 59 | 1016.7 |
| 20260507133534 | 70 | 287 | 1.7 | 8.7 | 0.00 | 0.00 | 0.00 | 58 | 1016.6 |
| 20260507133334 | 71 | 274 | 5.2 | 8.7 | 0.00 | 0.00 | 0.00 | 59 | 1016.7 |
| 20260507133134 | 71 | 275 | 3.5 | 8.7 | 0.00 | 0.00 | 0.00 | 59 | 1016.4 |
| 20260507132934 | 71 | 285 | 2.6 | 8.7 | 0.00 | 0.00 | 0.00 | 58 | 1016.4 |
| 20260507132734 | 71 | 202 | 3.5 | 8.7 | 0.00 | 0.00 | 0.00 | 59 | 1016.6 |
| 20260507132534 | 71 | 239 | 0.9 | 9.6 | 0.00 | 0.00 | 0.00 | 59 | 1016.4 |
| 20260507132334 | 72 | 274 | 2.6 | 9.6 | 0.00 | 0.00 | 0.00 | 57 | 1016.5 |
| 20260507132134 | 72 | 230 | 5.2 | 9.6 | 0.00 | 0.00 | 0.00 | 58 | 1016.5 |
| 20260507131933 | 72 | 255 | 1.7 | 9.6 | 0.00 | 0.00 | 0.00 | 58 | 1016.4 |
| 20260507131734 | 72 | 236 | 3.5 | 9.6 | 0.00 | 0.00 | 0.00 | 58 | 1016.4 |
| 20260507131533 | 73 | 221 | 6.1 | 8.7 | 0.00 | 0.00 | 0.00 | 57 | 1016.5 |
| 20260507131334 | 73 | 217 | 4.3 | 9.6 | 0.00 | 0.00 | 0.00 | 56 | 1016.5 |
| 20260507131134 | 73 | 253 | 1.7 | 9.6 | 0.00 | 0.00 | 0.00 | 56 | 1016.5 |
| 20260507130933 | 73 | 276 | 2.6 | 9.6 | 0.00 | 0.00 | 0.00 | 58 | 1016.5 |
| 20260507130734 | 74 | 221 | 5.2 | 9.6 | 0.00 | 0.00 | 0.00 | 58 | 1016.5 |
| 20260507130533 | 74 | 232 | 2.6 | 9.6 | 0.00 | 0.00 | 0.00 | 58 | 1016.5 |
| 20260507130333 | 74 | 218 | 3.5 | 7.8 | 0.00 | 0.00 | 0.00 | 58 | 1016.4 |
| 20260507130133 | 75 | 212 | 5.2 | 7.8 | 0.00 | 0.00 | 0.00 | 57 | 1016.4 |
| 20260507125933 | 76 | 222 | 4.3 | 7.0 | 0.00 | 0.00 | 0.00 | 57 | 1016.4 |
| 20260507125734 | 76 | 188 | 3.5 | 6.1 | 0.00 | 0.00 | 0.00 | 55 | 1016.4 |
| 20260507125533 | 76 | 208 | 3.5 | 6.1 | 0.00 | 0.00 | 0.00 | 55 | 1016.4 |
| 20260507125333 | 77 | 193 | 3.5 | 6.1 | 0.00 | 0.00 | 0.00 | 53 | 1016.5 |
| 20260507125133 | 78 | 183 | 3.5 | 6.1 | 0.00 | 0.00 | 0.00 | 51 | 1016.4 |
| 20260507124933 | 79 | 178 | 1.7 | 3.5 | 0.00 | 0.00 | 0.00 | 49 | 1016.5 |
| 20260507124733 | 79 | 213 | 0.0 | 3.5 | 0.00 | 0.00 | 0.00 | 47 | 1016.3 |
| 20260507124533 | 79 | 209 | 0.9 | 3.5 | 0.00 | 0.00 | 0.00 | 48 | 1016.2 |
| 20260507124333 | 79 | 297 | 0.0 | 3.5 | 0.00 | 0.00 | 0.00 | 46 | 1016.4 |
| 20260507124133 | 79 | 150 | 0.9 | 3.5 | 0.00 | 0.00 | 0.00 | 49 | 1016.6 |
| 20260507123933 | 79 | 14 | 1.7 | 3.5 | 0.00 | 0.00 | 0.00 | 47 | 1016.4 |
| 20260507123733 | 79 | 324 | 0.9 | 3.5 | 0.00 | 0.00 | 0.00 | 48 | 1016.5 |
| 20260507123521 | 79 | 133 | 1.7 | 3.5 | 0.00 | 0.00 | 0.00 | 49 | 1016.6 |
| 20260507123322 | 79 | 178 | 0.9 | 2.6 | 0.00 | 0.00 | 0.00 | 48 | 1016.5 |
| 20260507123121 | 79 | 224 | 1.7 | 2.6 | 0.00 | 0.00 | 0.00 | 46 | 1016.6 |
| 20260507122921 | 79 | 30 | 1.7 | 3.5 | 0.00 | 0.00 | 0.00 | 47 | 1016.7 |
| 20260507122722 | 78 | 344 | 0.9 | 3.5 | 0.00 | 0.00 | 0.00 | 47 | 1016.5 |
| 20260507122521 | 79 | 105 | 0.0 | 3.5 | 0.00 | 0.00 | 0.00 | 47 | 1016.5 |
| 20260507122321 | 79 | 281 | 0.0 | 3.5 | 0.00 | 0.00 | 0.00 | 47 | 1016.6 |
| 20260507122121 | 79 | 325 | 0.0 | 3.5 | 0.00 | 0.00 | 0.00 | 47 | 1016.7 |
| 20260507121921 | 79 | 357 | 1.7 | 4.3 | 0.00 | 0.00 | 0.00 | 45 | 1016.7 |
| 20260507121721 | 80 | 278 | 0.9 | 4.3 | 0.00 | 0.00 | 0.00 | 46 | 1016.6 |
| 20260507121521 | 80 | 134 | 1.7 | 5.2 | 0.00 | 0.00 | 0.00 | 46 | 1016.8 |
| 20260507121322 | 79 | 350 | 1.7 | 5.2 | 0.00 | 0.00 | 0.00 | 45 | 1016.5 |
| 20260507121122 | 80 | 173 | 1.7 | 5.2 | 0.00 | 0.00 | 0.00 | 44 | 1016.6 |
| 20260507120921 | 81 | 349 | 0.9 | 5.2 | 0.00 | 0.00 | 0.00 | 42 | 1016.5 |
| 20260507120721 | 81 | 181 | 1.7 | 5.2 | 0.00 | 0.00 | 0.00 | 44 | 1016.5 |
| 20260507120521 | 81 | 126 | 1.7 | 4.3 | 0.00 | 0.00 | 0.00 | 45 | 1016.5 |
| 20260507120321 | 81 | 120 | 1.7 | 3.5 | 0.00 | 0.00 | 0.00 | 43 | 1016.4 |
| 20260507120121 | 81 | 225 | 1.7 | 4.3 | 0.00 | 0.00 | 0.00 | 44 | 1016.5 |
| 20260507115921 | 81 | 200 | 1.7 | 4.3 | 0.00 | 0.00 | 0.00 | 43 | 1016.4 |
| 20260507115721 | 80 | 72 | 2.6 | 4.3 | 0.00 | 0.00 | 0.00 | 44 | 1016.7 |
| 20260507115521 | 80 | 218 | 0.0 | 4.3 | 0.00 | 0.00 | 0.00 | 43 | 1016.5 |
| 20260507115322 | 80 | 11 | 2.6 | 5.2 | 0.00 | 0.00 | 0.00 | 43 | 1016.5 |
| 20260507115121 | 81 | 109 | 0.9 | 5.2 | 0.00 | 0.00 | 0.00 | 44 | 1016.7 |
| 20260507114921 | 80 | 262 | 0.0 | 5.2 | 0.00 | 0.00 | 0.00 | 45 | 1016.7 |
| 20260507114721 | 80 | 163 | 1.7 | 5.2 | 0.00 | 0.00 | 0.00 | 43 | 1016.7 |
| 20260507114521 | 80 | 145 | 0.0 | 5.2 | 0.00 | 0.00 | 0.00 | 44 | 1016.7 |
| 20260507114321 | 80 | 144 | 4.3 | 4.3 | 0.00 | 0.00 | 0.00 | 44 | 1016.7 |
| 20260507114121 | 80 | 212 | 0.9 | 3.5 | 0.00 | 0.00 | 0.00 | 42 | 1016.5 |
| 20260507113921 | 80 | 340 | 1.7 | 3.5 | 0.00 | 0.00 | 0.00 | 44 | 1016.6 |
| 20260507113721 | 79 | 223 | 1.7 | 4.3 | 0.00 | 0.00 | 0.00 | 47 | 1017.0 |
| 20260507113522 | 79 | 332 | 0.9 | 4.3 | 0.00 | 0.00 | 0.00 | 45 | 1016.8 |
| 20260507113321 | 79 | 114 | 0.9 | 4.3 | 0.00 | 0.00 | 0.00 | 45 | 1016.8 |
| 20260507113121 | 78 | 59 | 1.7 | 4.3 | 0.00 | 0.00 | 0.00 | 46 | 1016.8 |
| 20260507112922 | 78 | 41 | 1.7 | 4.3 | 0.00 | 0.00 | 0.00 | 46 | 1016.8 |
| 20260507112721 | 78 | 317 | 0.0 | 3.5 | 0.00 | 0.00 | 0.00 | 46 | 1017.0 |
| 20260507112521 | 78 | 224 | 0.9 | 3.5 | 0.00 | 0.00 | 0.00 | 47 | 1017.0 |
| 20260507112321 | 78 | 357 | 2.6 | 3.5 | 0.00 | 0.00 | 0.00 | 47 | 1016.8 |
| 20260507112121 | 77 | 23 | 0.0 | 3.5 | 0.00 | 0.00 | 0.00 | 47 | 1016.6 |
| 20260507111922 | 77 | 242 | 0.0 | 3.5 | 0.00 | 0.00 | 0.00 | 48 | 1017.0 |
| 20260507111722 | 77 | 151 | 1.7 | 5.2 | 0.00 | 0.00 | 0.00 | 48 | 1016.8 |
| 20260507111521 | 77 | 326 | 0.0 | 5.2 | 0.00 | 0.00 | 0.00 | 47 | 1016.8 |
| 20260507111322 | 77 | 7 | 1.7 | 5.2 | 0.00 | 0.00 | 0.00 | 46 | 1017.1 |
| 20260507111121 | 77 | 9 | 1.7 | 5.2 | 0.00 | 0.00 | 0.00 | 47 | 1017.1 |
| 20260507110922 | 77 | 330 | 2.6 | 5.2 | 0.00 | 0.00 | 0.00 | 46 | 1016.8 |
| 20260507110721 | 78 | 119 | 0.0 | 5.2 | 0.00 | 0.00 | 0.00 | 46 | 1016.8 |
| 20260507110521 | 77 | 286 | 1.7 | 4.3 | 0.00 | 0.00 | 0.00 | 47 | 1017.0 |
| 20260507110321 | 77 | 6 | 0.9 | 4.3 | 0.00 | 0.00 | 0.00 | 45 | 1017.0 |
| 20260507110121 | 77 | 27 | 1.7 | 4.3 | 0.00 | 0.00 | 0.00 | 47 | 1016.8 |
| 20260507105921 | 77 | 34 | 1.7 | 4.3 | 0.00 | 0.00 | 0.00 | 47 | 1016.7 |
| 20260507105721 | 77 | 193 | 2.6 | 3.5 | 0.00 | 0.00 | 0.00 | 47 | 1017.0 |
| 20260507105521 | 77 | 82 | 0.0 | 3.5 | 0.00 | 0.00 | 0.00 | 47 | 1017.1 |
| 20260507105322 | 78 | 19 | 0.0 | 2.6 | 0.00 | 0.00 | 0.00 | 45 | 1016.8 |
| 20260507105121 | 78 | 331 | 1.7 | 2.6 | 0.00 | 0.00 | 0.00 | 46 | 1016.7 |
| 20260507104921 | 78 | 342 | 0.9 | 2.6 | 0.00 | 0.00 | 0.00 | 46 | 1017.2 |
| 20260507104722 | 78 | 222 | 1.7 | 3.5 | 0.00 | 0.00 | 0.00 | 47 | 1017.0 |
| 20260507104521 | 77 | 243 | 2.6 | 3.5 | 0.00 | 0.00 | 0.00 | 47 | 1016.8 |
| 20260507104321 | 77 | 338 | 2.6 | 3.5 | 0.00 | 0.00 | 0.00 | 47 | 1017.1 |
| 20260507104121 | 77 | 14 | 1.7 | 3.5 | 0.00 | 0.00 | 0.00 | 47 | 1016.8 |
| 20260507103921 | 77 | 328 | 0.0 | 3.5 | 0.00 | 0.00 | 0.00 | 48 | 1016.7 |
| 20260507103721 | 77 | 123 | 1.7 | 5.2 | 0.00 | 0.00 | 0.00 | 49 | 1017.1 |
| 20260507103521 | 76 | 294 | 1.7 | 5.2 | 0.00 | 0.00 | 0.00 | 50 | 1016.8 |
| 20260507103321 | 75 | 127 | 0.0 | 5.2 | 0.00 | 0.00 | 0.00 | 50 | 1017.0 |
| 20260507103121 | 75 | 21 | 0.9 | 5.2 | 0.00 | 0.00 | 0.00 | 50 | 1017.0 |
| 20260507102921 | 76 | 357 | 1.7 | 5.2 | 0.00 | 0.00 | 0.00 | 50 | 1016.8 |
| 20260507102721 | 76 | 254 | 0.0 | 4.3 | 0.00 | 0.00 | 0.00 | 47 | 1017.1 |
| 20260507102522 | 76 | 356 | 0.0 | 4.3 | 0.00 | 0.00 | 0.00 | 50 | 1017.0 |
| 20260507102322 | 77 | 352 | 4.3 | 4.3 | 0.00 | 0.00 | 0.00 | 50 | 1017.2 |
| 20260507102122 | 77 | 151 | 1.7 | 4.3 | 0.00 | 0.00 | 0.00 | 51 | 1017.1 |
| 20260507101921 | 77 | 183 | 0.9 | 4.3 | 0.00 | 0.00 | 0.00 | 48 | 1017.3 |
| 20260507101721 | 77 | 149 | 1.7 | 4.3 | 0.00 | 0.00 | 0.00 | 50 | 1017.4 |
| 20260507101522 | 76 | 130 | 0.0 | 4.3 | 0.00 | 0.00 | 0.00 | 50 | 1017.1 |
| 20260507101321 | 76 | 137 | 1.7 | 4.3 | 0.00 | 0.00 | 0.00 | 49 | 1017.2 |
| 20260507101121 | 76 | 204 | 2.6 | 4.3 | 0.00 | 0.00 | 0.00 | 49 | 1017.4 |
| 20260507100921 | 76 | 144 | 3.5 | 4.3 | 0.00 | 0.00 | 0.00 | 50 | 1017.3 |
| 20260507100721 | 76 | 220 | 3.5 | 4.3 | 0.00 | 0.00 | 0.00 | 48 | 1017.2 |
| 20260507100523 | 75 | 196 | 0.9 | 4.3 | 0.00 | 0.00 | 0.00 | 49 | 1017.2 |
| 20260507100322 | 76 | 159 | 1.7 | 4.3 | 0.00 | 0.00 | 0.00 | 49 | 1017.4 |
| 20260507100122 | 75 | 156 | 1.7 | 4.3 | 0.00 | 0.00 | 0.00 | 50 | 1017.6 |
| 20260507095922 | 75 | 186 | 1.7 | 4.3 | 0.00 | 0.00 | 0.00 | 49 | 1017.3 |
| 20260507095722 | 76 | 183 | 1.7 | 4.3 | 0.00 | 0.00 | 0.00 | 49 | 1017.3 |
| 20260507095521 | 75 | 180 | 0.9 | 3.5 | 0.00 | 0.00 | 0.00 | 50 | 1017.4 |
| 20260507095322 | 75 | 200 | 2.6 | 3.5 | 0.00 | 0.00 | 0.00 | 51 | 1017.4 |
| 20260507095122 | 75 | 192 | 2.6 | 3.5 | 0.00 | 0.00 | 0.00 | 51 | 1017.5 |
| 20260507094922 | 75 | 189 | 0.0 | 4.3 | 0.00 | 0.00 | 0.00 | 51 | 1017.5 |
| 20260507094722 | 75 | 161 | 2.6 | 4.3 | 0.00 | 0.00 | 0.00 | 51 | 1017.4 |
| 20260507094509 | 75 | 322 | 0.9 | 4.3 | 0.00 | 0.00 | 0.00 | 49 | 1017.5 |
| 20260507094310 | 75 | 272 | 0.9 | 4.3 | 0.00 | 0.00 | 0.00 | 53 | 1017.5 |
| 20260507094109 | 75 | 147 | 4.3 | 4.3 | 0.00 | 0.00 | 0.00 | 49 | 1017.5 |
| 20260507093909 | 75 | 227 | 0.0 | 3.5 | 0.00 | 0.00 | 0.00 | 51 | 1017.6 |
| 20260507093709 | 75 | 127 | 0.0 | 3.5 | 0.00 | 0.00 | 0.00 | 50 | 1017.6 |
| 20260507093509 | 74 | 183 | 1.7 | 3.5 | 0.00 | 0.00 | 0.00 | 53 | 1017.6 |
| 20260507093309 | 74 | 132 | 0.9 | 3.5 | 0.00 | 0.00 | 0.00 | 50 | 1017.6 |
| 20260507093110 | 74 | 214 | 1.7 | 3.5 | 0.00 | 0.00 | 0.00 | 52 | 1017.6 |
| 20260507092910 | 74 | 130 | 0.0 | 3.5 | 0.00 | 0.00 | 0.00 | 51 | 1017.7 |
| 20260507092710 | 74 | 143 | 1.7 | 4.3 | 0.00 | 0.00 | 0.00 | 51 | 1017.8 |
| 20260507092509 | 74 | 170 | 1.7 | 4.3 | 0.00 | 0.00 | 0.00 | 53 | 1017.6 |
| 20260507092309 | 73 | 242 | 0.0 | 4.3 | 0.00 | 0.00 | 0.00 | 52 | 1017.9 |
| 20260507092109 | 73 | 104 | 0.0 | 4.3 | 0.00 | 0.00 | 0.00 | 52 | 1017.6 |
| 20260507091910 | 73 | 273 | 0.9 | 4.3 | 0.00 | 0.00 | 0.00 | 55 | 1017.7 |
| 20260507091709 | 73 | 188 | 1.7 | 4.3 | 0.00 | 0.00 | 0.00 | 53 | 1017.6 |
| 20260507091509 | 73 | 154 | 1.7 | 4.3 | 0.00 | 0.00 | 0.00 | 53 | 1017.7 |
| 20260507091309 | 73 | 199 | 3.5 | 4.3 | 0.00 | 0.00 | 0.00 | 53 | 1017.8 |
| 20260507091109 | 73 | 351 | 1.7 | 4.3 | 0.00 | 0.00 | 0.00 | 53 | 1017.7 |
| 20260507090909 | 73 | 218 | 0.0 | 4.3 | 0.00 | 0.00 | 0.00 | 55 | 1017.6 |
| 20260507090709 | 73 | 140 | 3.5 | 4.3 | 0.00 | 0.00 | 0.00 | 54 | 1017.8 |
| 20260507090508 | 73 | 349 | 2.6 | 4.3 | 0.00 | 0.00 | 0.00 | 55 | 1017.6 |
| 20260507090310 | 73 | 315 | 0.9 | 3.5 | 0.00 | 0.00 | 0.00 | 54 | 1017.5 |
| 20260507090109 | 73 | 48 | 3.5 | 3.5 | 0.00 | 0.00 | 0.00 | 53 | 1017.6 |
| 20260507085909 | 73 | 165 | 0.0 | 3.5 | 0.00 | 0.00 | 0.00 | 54 | 1017.8 |
| 20260507085710 | 73 | 144 | 0.0 | 3.5 | 0.00 | 0.00 | 0.00 | 54 | 1017.8 |
| 20260507085509 | 73 | 358 | 0.9 | 3.5 | 0.00 | 0.00 | 0.00 | 54 | 1017.7 |
| 20260507085309 | 73 | 177 | 0.9 | 3.5 | 0.00 | 0.00 | 0.00 | 54 | 1017.7 |
| 20260507085109 | 73 | 33 | 0.0 | 3.5 | 0.00 | 0.00 | 0.00 | 54 | 1017.6 |
| 20260507084910 | 73 | 208 | 0.0 | 2.6 | 0.00 | 0.00 | 0.00 | 56 | 1017.6 |
| 20260507084709 | 72 | 126 | 1.7 | 3.5 | 0.00 | 0.00 | 0.00 | 55 | 1017.8 |
| 20260507084510 | 72 | 156 | 1.7 | 3.5 | 0.00 | 0.00 | 0.00 | 55 | 1017.6 |
| 20260507084309 | 72 | 213 | 1.7 | 3.5 | 0.00 | 0.00 | 0.00 | 54 | 1017.7 |
| 20260507084108 | 72 | 329 | 0.9 | 3.5 | 0.00 | 0.00 | 0.00 | 54 | 1017.6 |
| 20260507083909 | 72 | 179 | 2.6 | 3.5 | 0.00 | 0.00 | 0.00 | 56 | 1017.7 |
| 20260507083708 | 72 | 161 | 1.7 | 3.5 | 0.00 | 0.00 | 0.00 | 55 | 1017.8 |
| 20260507083508 | 72 | 281 | 0.9 | 4.3 | 0.00 | 0.00 | 0.00 | 54 | 1017.8 |
| 20260507083308 | 71 | 171 | 0.9 | 4.3 | 0.00 | 0.00 | 0.00 | 55 | 1017.8 |
| 20260507083108 | 70 | 147 | 0.0 | 4.3 | 0.00 | 0.00 | 0.00 | 56 | 1017.8 |
| 20260507082908 | 70 | 202 | 0.9 | 4.3 | 0.00 | 0.00 | 0.00 | 57 | 1018.0 |
| 20260507082708 | 71 | 188 | 1.7 | 4.3 | 0.00 | 0.00 | 0.00 | 57 | 1018.0 |
| 20260507082508 | 71 | 222 | 1.7 | 3.5 | 0.00 | 0.00 | 0.00 | 59 | 1018.0 |
| 20260507082308 | 70 | 214 | 0.0 | 3.5 | 0.00 | 0.00 | 0.00 | 56 | 1018.0 |
| 20260507082108 | 71 | 214 | 1.7 | 3.5 | 0.00 | 0.00 | 0.00 | 57 | 1018.1 |
| 20260507081908 | 71 | 175 | 1.7 | 1.7 | 0.00 | 0.00 | 0.00 | 57 | 1017.8 |
| 20260507081708 | 71 | 326 | 0.0 | 2.6 | 0.00 | 0.00 | 0.00 | 56 | 1018.1 |
| 20260507081523 | 71 | 164 | 0.0 | 2.6 | 0.00 | 0.00 | 0.00 | 57 | 1017.8 |
| 20260507081309 | 70 | 200 | 0.0 | 2.6 | 0.00 | 0.00 | 0.00 | 58 | 1017.9 |
| 20260507081108 | 70 | 224 | 0.0 | 2.6 | 0.00 | 0.00 | 0.00 | 58 | 1018.0 |
| 20260507080908 | 69 | 148 | 0.0 | 3.5 | 0.00 | 0.00 | 0.00 | 58 | 1017.8 |
| 20260507080708 | 69 | 359 | 0.9 | 3.5 | 0.00 | 0.00 | 0.00 | 58 | 1017.8 |
| 20260507080508 | 69 | 211 | 0.0 | 3.5 | 0.00 | 0.00 | 0.00 | 59 | 1017.9 |
| 20260507080308 | 69 | 133 | 0.9 | 3.5 | 0.00 | 0.00 | 0.00 | 59 | 1017.6 |
| 20260507075908 | 69 | 142 | 1.7 | 4.3 | 0.00 | 0.00 | 0.00 | 59 | 1017.5 |
| 20260507075708 | 68 | 167 | 0.9 | 4.3 | 0.00 | 0.00 | 0.00 | 61 | 1017.7 |
| 20260507075508 | 68 | 215 | 2.6 | 4.3 | 0.00 | 0.00 | 0.00 | 62 | 1017.8 |
| 20260507075309 | 68 | 246 | 1.7 | 4.3 | 0.00 | 0.00 | 0.00 | 62 | 1017.7 |
| 20260507075109 | 68 | 294 | 0.0 | 3.5 | 0.00 | 0.00 | 0.00 | 60 | 1017.7 |
| 20260507074909 | 69 | 157 | 2.6 | 3.5 | 0.00 | 0.00 | 0.00 | 59 | 1017.7 |
| 20260507074708 | 69 | 333 | 0.0 | 2.6 | 0.00 | 0.00 | 0.00 | 59 | 1017.8 |
| 20260507074509 | 69 | 56 | 0.9 | 3.5 | 0.00 | 0.00 | 0.00 | 59 | 1017.6 |
| 20260507074308 | 69 | 34 | 0.0 | 3.5 | 0.00 | 0.00 | 0.00 | 60 | 1017.8 |
| 20260507074108 | 68 | 129 | 0.9 | 3.5 | 0.00 | 0.00 | 0.00 | 62 | 1017.9 |
| 20260507073908 | 67 | 202 | 1.7 | 3.5 | 0.00 | 0.00 | 0.00 | 63 | 1017.8 |
| 20260507073708 | 67 | 123 | 0.9 | 3.5 | 0.00 | 0.00 | 0.00 | 61 | 1017.7 |
| 20260507073508 | 68 | 150 | 3.5 | 3.5 | 0.00 | 0.00 | 0.00 | 61 | 1017.7 |
| 20260507073310 | 68 | 161 | 0.0 | 3.5 | 0.00 | 0.00 | 0.00 | 60 | 1017.8 |
| 20260507073109 | 68 | 82 | 0.0 | 3.5 | 0.00 | 0.00 | 0.00 | 62 | 1017.8 |
| 20260507072909 | 68 | 13 | 1.7 | 2.6 | 0.00 | 0.00 | 0.00 | 60 | 1017.9 |
| 20260507072709 | 68 | 89 | 0.0 | 3.5 | 0.00 | 0.00 | 0.00 | 60 | 1017.9 |
| 20260507072509 | 67 | 244 | 0.0 | 4.3 | 0.00 | 0.00 | 0.00 | 61 | 1017.6 |
| 20260507072308 | 67 | 89 | 0.0 | 4.3 | 0.00 | 0.00 | 0.00 | 62 | 1017.8 |
| 20260507072109 | 67 | 164 | 0.0 | 4.3 | 0.00 | 0.00 | 0.00 | 61 | 1017.9 |
| 20260507071909 | 67 | 213 | 0.0 | 4.3 | 0.00 | 0.00 | 0.00 | 62 | 1017.7 |
| 20260507071709 | 68 | 168 | 0.9 | 4.3 | 0.00 | 0.00 | 0.00 | 60 | 1018.0 |
| 20260507071508 | 68 | 134 | 0.0 | 2.6 | 0.00 | 0.00 | 0.00 | 61 | 1017.8 |
| 20260507071308 | 67 | 220 | 0.9 | 2.6 | 0.00 | 0.00 | 0.00 | 61 | 1017.9 |
| 20260507071108 | 66 | 185 | 0.9 | 2.6 | 0.00 | 0.00 | 0.00 | 63 | 1017.9 |
| 20260507070908 | 65 | 4 | 0.0 | 2.6 | 0.00 | 0.00 | 0.00 | 63 | 1017.9 |
| 20260507070708 | 66 | 37 | 2.6 | 2.6 | 0.00 | 0.00 | 0.00 | 62 | 1017.9 |
| 20260507070508 | 66 | 63 | 1.7 | 2.6 | 0.00 | 0.00 | 0.00 | 63 | 1017.9 |
| 20260507070308 | 66 | 147 | 2.6 | 2.6 | 0.00 | 0.00 | 0.00 | 63 | 1017.8 |
| 20260507070108 | 66 | 159 | 1.7 | 2.6 | 0.00 | 0.00 | 0.00 | 63 | 1018.1 |
| 20260507065909 | 65 | 7 | 0.9 | 1.7 | 0.00 | 0.00 | 0.00 | 63 | 1018.0 |
| 20260507065708 | 65 | 202 | 0.0 | 2.6 | 0.00 | 0.00 | 0.00 | 64 | 1018.0 |
| 20260507065508 | 65 | 57 | 0.9 | 2.6 | 0.00 | 0.00 | 0.00 | 63 | 1018.0 |
| 20260507065308 | 65 | 121 | 0.9 | 2.6 | 0.00 | 0.00 | 0.00 | 64 | 1018.0 |
| 20260507065110 | 64 | 105 | 1.7 | 2.6 | 0.00 | 0.00 | 0.00 | 64 | 1018.0 |
| 20260507064909 | 65 | 176 | 1.7 | 2.6 | 0.00 | 0.00 | 0.00 | 65 | 1017.9 |
| 20260507064708 | 64 | 65 | 0.9 | 2.6 | 0.00 | 0.00 | 0.00 | 66 | 1018.0 |
| 20260507064508 | 65 | 141 | 0.0 | 2.6 | 0.00 | 0.00 | 0.00 | 65 | 1018.0 |
| 20260507064308 | 64 | 151 | 1.7 | 2.6 | 0.00 | 0.00 | 0.00 | 66 | 1018.1 |
| 20260507064108 | 64 | 205 | 0.0 | 2.6 | 0.00 | 0.00 | 0.00 | 68 | 1018.0 |
| 20260507063908 | 64 | 187 | 1.7 | 2.6 | 0.00 | 0.00 | 0.00 | 65 | 1018.0 |
| 20260507063708 | 64 | 165 | 1.7 | 2.6 | 0.00 | 0.00 | 0.00 | 65 | 1018.0 |
| 20260507063508 | 64 | 359 | 0.9 | 2.6 | 0.00 | 0.00 | 0.00 | 65 | 1018.1 |
| 20260507063308 | 63 | 139 | 0.0 | 2.6 | 0.00 | 0.00 | 0.00 | 66 | 1018.3 |
| 20260507063108 | 63 | 132 | 1.7 | 3.5 | 0.00 | 0.00 | 0.00 | 67 | 1018.1 |
| 20260507062908 | 63 | 3 | 0.9 | 3.5 | 0.00 | 0.00 | 0.00 | 67 | 1018.1 |
| 20260507062708 | 63 | 132 | 0.0 | 3.5 | 0.00 | 0.00 | 0.00 | 67 | 1018.3 |
| 20260507062508 | 62 | 122 | 0.0 | 3.5 | 0.00 | 0.00 | 0.00 | 70 | 1017.9 |
| 20260507062308 | 62 | 168 | 1.7 | 3.5 | 0.00 | 0.00 | 0.00 | 69 | 1018.1 |
| 20260507062108 | 62 | 161 | 1.7 | 2.6 | 0.00 | 0.00 | 0.00 | 68 | 1018.1 |
| 20260507061908 | 63 | 139 | 2.6 | 2.6 | 0.00 | 0.00 | 0.00 | 68 | 1017.9 |
| 20260507061708 | 62 | 14 | 0.0 | 2.6 | 0.00 | 0.00 | 0.00 | 68 | 1017.9 |
| 20260507061308 | 62 | 1 | 0.9 | 2.6 | 0.00 | 0.00 | 0.00 | 68 | 1018.0 |
| 20260507061108 | 63 | 94 | 0.0 | 2.6 | 0.00 | 0.00 | 0.00 | 67 | 1017.8 |
| 20260507060910 | 62 | 123 | 2.6 | 2.6 | 0.00 | 0.00 | 0.00 | 68 | 1018.1 |
| 20260507060708 | 62 | 121 | 0.0 | 2.6 | 0.00 | 0.00 | 0.00 | 69 | 1017.9 |
| 20260507060508 | 61 | 152 | 0.9 | 2.6 | 0.00 | 0.00 | 0.00 | 70 | 1018.0 |
| 20260507060309 | 60 | 40 | 1.7 | 2.6 | 0.00 | 0.00 | 0.00 | 71 | 1017.9 |
| 20260507060109 | 60 | 69 | 0.9 | 2.6 | 0.00 | 0.00 | 0.00 | 72 | 1017.9 |
| 20260507055909 | 59 | 135 | 0.0 | 2.6 | 0.00 | 0.00 | 0.00 | 75 | 1017.8 |
| 20260507055709 | 59 | 136 | 2.6 | 3.5 | 0.00 | 0.00 | 0.00 | 74 | 1018.0 |
| 20260507055509 | 58 | 178 | 1.7 | 3.5 | 0.00 | 0.00 | 0.00 | 75 | 1017.9 |
| 20260507055309 | 59 | 172 | 1.7 | 3.5 | 0.00 | 0.00 | 0.00 | 74 | 1018.0 |
| 20260507055108 | 59 | 163 | 1.7 | 3.5 | 0.00 | 0.00 | 0.00 | 75 | 1017.9 |
| 20260507054908 | 58 | 129 | 0.9 | 3.5 | 0.00 | 0.00 | 0.00 | 75 | 1018.1 |
| 20260507054709 | 58 | 131 | 1.7 | 2.6 | 0.00 | 0.00 | 0.00 | 75 | 1018.0 |
| 20260507054508 | 58 | 123 | 0.9 | 2.6 | 0.00 | 0.00 | 0.00 | 75 | 1018.1 |
| 20260507054308 | 58 | 159 | 2.6 | 2.6 | 0.00 | 0.00 | 0.00 | 76 | 1017.9 |
| 20260507054108 | 58 | 142 | 1.7 | 2.6 | 0.00 | 0.00 | 0.00 | 77 | 1018.1 |
| 20260507053909 | 58 | 199 | 0.9 | 1.7 | 0.00 | 0.00 | 0.00 | 77 | 1018.0 |
| 20260507053709 | 58 | 180 | 0.9 | 1.7 | 0.00 | 0.00 | 0.00 | 77 | 1018.0 |
| 20260507053509 | 58 | 169 | 0.0 | 1.7 | 0.00 | 0.00 | 0.00 | 76 | 1018.0 |
| 20260507053309 | 57 | 220 | 1.7 | 1.7 | 0.00 | 0.00 | 0.00 | 76 | 1017.9 |
| 20260507053109 | 57 | 142 | 0.0 | 1.7 | 0.00 | 0.00 | 0.00 | 77 | 1018.1 |
| 20260507052909 | 56 | 300 | 1.7 | 1.7 | 0.00 | 0.00 | 0.00 | 77 | 1018.0 |
| 20260507052709 | 56 | 304 | 0.0 | 1.7 | 0.00 | 0.00 | 0.00 | 77 | 1017.9 |
| 20260507052508 | 56 | 242 | 0.0 | 1.7 | 0.00 | 0.00 | 0.00 | 79 | 1017.9 |
| 20260507052308 | 56 | 217 | 0.0 | 1.7 | 0.00 | 0.00 | 0.00 | 78 | 1018.0 |
| 20260507052108 | 56 | 258 | 0.9 | 1.7 | 0.00 | 0.00 | 0.00 | 79 | 1018.0 |
| 20260507051909 | 56 | 142 | 0.0 | 1.7 | 0.00 | 0.00 | 0.00 | 79 | 1017.9 |
| 20260507051711 | 56 | 159 | 0.0 | 1.7 | 0.00 | 0.00 | 0.00 | 78 | 1017.9 |
| 20260507051508 | 56 | 143 | 0.0 | 1.7 | 0.00 | 0.00 | 0.00 | 78 | 1018.1 |
| 20260507051308 | 56 | 191 | 0.0 | 1.7 | 0.00 | 0.00 | 0.00 | 79 | 1018.0 |
| 20260507051108 | 56 | 158 | 0.0 | 1.7 | 0.00 | 0.00 | 0.00 | 79 | 1018.0 |
| 20260507050908 | 55 | 68 | 0.0 | 1.7 | 0.00 | 0.00 | 0.00 | 78 | 1017.8 |
| 20260507050708 | 55 | 143 | 0.0 | 1.7 | 0.00 | 0.00 | 0.00 | 80 | 1017.9 |
| 20260507050508 | 55 | 155 | 0.0 | 1.7 | 0.00 | 0.00 | 0.00 | 79 | 1018.0 |
| 20260507050311 | 53 | 114 | 0.9 | 1.7 | 0.00 | 0.00 | 0.00 | 83 | 1017.9 |
| 20260507050108 | 53 | 135 | 0.0 | 1.7 | 0.00 | 0.00 | 0.00 | 84 | 1017.9 |
| 20260507045908 | 52 | 119 | 0.0 | 1.7 | 0.00 | 0.00 | 0.00 | 84 | 1017.9 |
| 20260507045708 | 51 | 133 | 0.0 | 1.7 | 0.00 | 0.00 | 0.00 | 86 | 1017.9 |
| 20260507045508 | 51 | 189 | 1.7 | 1.7 | 0.00 | 0.00 | 0.00 | 85 | 1017.8 |
| 20260507045308 | 51 | 130 | 0.0 | 1.7 | 0.00 | 0.00 | 0.00 | 85 | 1017.7 |
| 20260507045108 | 51 | 128 | 0.0 | 1.7 | 0.00 | 0.00 | 0.00 | 86 | 1017.9 |
| 20260507044908 | 50 | 93 | 0.0 | 1.7 | 0.00 | 0.00 | 0.00 | 87 | 1017.7 |
| 20260507044708 | 50 | 134 | 0.0 | 1.7 | 0.00 | 0.00 | 0.00 | 88 | 1017.9 |
| 20260507044308 | 50 | 205 | 0.0 | 1.7 | 0.00 | 0.00 | 0.00 | 86 | 1017.8 |
| 20260507044108 | 51 | 139 | 0.0 | 1.7 | 0.00 | 0.00 | 0.00 | 86 | 1017.8 |
| 20260507043908 | 50 | 113 | 0.0 | 1.7 | 0.00 | 0.00 | 0.00 | 86 | 1017.6 |
| 20260507043708 | 50 | 101 | 0.9 | 1.7 | 0.00 | 0.00 | 0.00 | 86 | 1017.6 |
| 20260507043508 | 50 | 59 | 0.0 | 1.7 | 0.00 | 0.00 | 0.00 | 87 | 1017.5 |
| 20260507043309 | 49 | 108 | 0.9 | 1.7 | 0.00 | 0.00 | 0.00 | 87 | 1017.7 |
| 20260507043109 | 49 | 71 | 0.0 | 1.7 | 0.00 | 0.00 | 0.00 | 88 | 1017.7 |
| 20260507042909 | 49 | 133 | 0.0 | 1.7 | 0.00 | 0.00 | 0.00 | 88 | 1017.8 |
| 20260507042709 | 49 | 115 | 1.7 | 1.7 | 0.00 | 0.00 | 0.00 | 89 | 1017.9 |
| 20260507042508 | 48 | 127 | 0.9 | 1.7 | 0.00 | 0.00 | 0.00 | 91 | 1017.8 |
| 20260507042308 | 47 | 68 | 0.9 | 1.7 | 0.00 | 0.00 | 0.00 | 92 | 1017.6 |
| 20260507042108 | 47 | 300 | 0.0 | 1.7 | 0.00 | 0.00 | 0.00 | 93 | 1017.7 |
| 20260507041908 | 47 | 340 | 0.0 | 1.7 | 0.00 | 0.00 | 0.00 | 94 | 1017.6 |
| 20260507041708 | 46 | 290 | 0.9 | 1.7 | 0.00 | 0.00 | 0.00 | 95 | 1017.6 |
| 20260507041508 | 46 | 355 | 0.0 | 2.6 | 0.00 | 0.00 | 0.00 | 95 | 1017.5 |
| 20260507041308 | 46 | 340 | 0.9 | 2.6 | 0.00 | 0.00 | 0.00 | 96 | 1017.6 |
| 20260507041109 | 45 | 320 | 0.0 | 2.6 | 0.00 | 0.00 | 0.00 | 96 | 1017.6 |
| 20260507040909 | 45 | 20 | 1.7 | 2.6 | 0.00 | 0.00 | 0.00 | 96 | 1017.4 |
| 20260507040709 | 45 | 35 | 0.9 | 2.6 | 0.00 | 0.00 | 0.00 | 97 | 1017.7 |
| 20260507040509 | 44 | 39 | 0.0 | 1.7 | 0.00 | 0.00 | 0.00 | 97 | 1017.6 |
| 20260507040310 | 44 | 38 | 0.0 | 1.7 | 0.00 | 0.00 | 0.00 | 97 | 1017.7 |
| 20260507040108 | 44 | 31 | 0.0 | 1.7 | 0.00 | 0.00 | 0.00 | 97 | 1017.5 |
| 20260507035908 | 44 | 50 | 0.0 | 1.7 | 0.00 | 0.00 | 0.00 | 97 | 1017.5 |
| 20260507035708 | 44 | 33 | 0.0 | 1.7 | 0.00 | 0.00 | 0.00 | 97 | 1017.4 |
| 20260507035508 | 44 | 30 | 0.0 | 1.7 | 0.00 | 0.00 | 0.00 | 97 | 1017.5 |
| 20260507035308 | 44 | 25 | 0.0 | 1.7 | 0.00 | 0.00 | 0.00 | 97 | 1017.6 |
| 20260507035108 | 44 | 20 | 0.9 | 1.7 | 0.00 | 0.00 | 0.00 | 97 | 1017.6 |
| 20260507034908 | 44 | 17 | 0.9 | 1.7 | 0.00 | 0.00 | 0.00 | 97 | 1017.5 |
| 20260507034708 | 44 | 13 | 0.9 | 1.7 | 0.00 | 0.00 | 0.00 | 97 | 1017.5 |
| 20260507034508 | 43 | 358 | 0.9 | 1.7 | 0.00 | 0.00 | 0.00 | 97 | 1017.5 |
| 20260507034308 | 43 | 359 | 0.9 | 1.7 | 0.00 | 0.00 | 0.00 | 97 | 1017.5 |
| 20260507034108 | 43 | 22 | 0.0 | 1.7 | 0.00 | 0.00 | 0.00 | 97 | 1017.5 |
| 20260507033908 | 43 | 5 | 0.9 | 1.7 | 0.00 | 0.00 | 0.00 | 97 | 1017.7 |
| 20260507033708 | 43 | 2 | 0.0 | 1.7 | 0.00 | 0.00 | 0.00 | 97 | 1017.5 |
| 20260507033508 | 43 | 22 | 0.9 | 1.7 | 0.00 | 0.00 | 0.00 | 97 | 1017.6 |
| 20260507033308 | 43 | 22 | 0.9 | 1.7 | 0.00 | 0.00 | 0.00 | 97 | 1017.4 |
| 20260507033108 | 43 | 2 | 0.0 | 1.7 | 0.00 | 0.00 | 0.00 | 97 | 1017.7 |
| 20260507032908 | 43 | 23 | 1.7 | 1.7 | 0.00 | 0.00 | 0.00 | 97 | 1017.5 |
| 20260507032708 | 43 | 18 | 0.0 | 1.7 | 0.00 | 0.00 | 0.00 | 97 | 1017.5 |
| 20260507032508 | 43 | 322 | 0.9 | 1.7 | 0.00 | 0.00 | 0.00 | 97 | 1017.5 |
| 20260507032309 | 43 | 47 | 0.0 | 1.7 | 0.00 | 0.00 | 0.00 | 96 | 1017.4 |
| 20260507032110 | 43 | 135 | 0.0 | 1.7 | 0.00 | 0.00 | 0.00 | 97 | 1017.4 |
| 20260507031909 | 43 | 340 | 0.0 | 1.7 | 0.00 | 0.00 | 0.00 | 97 | 1017.3 |
| 20260507031709 | 43 | 2 | 0.9 | 1.7 | 0.00 | 0.00 | 0.00 | 97 | 1017.4 |
| 20260507031509 | 43 | 7 | 1.7 | 1.7 | 0.00 | 0.00 | 0.00 | 97 | 1017.4 |
| 20260507031309 | 43 | 40 | 1.7 | 2.6 | 0.00 | 0.00 | 0.00 | 97 | 1017.3 |
| 20260507031109 | 43 | 7 | 0.0 | 2.6 | 0.00 | 0.00 | 0.00 | 97 | 1017.3 |
| 20260507030909 | 43 | 2 | 0.0 | 2.6 | 0.00 | 0.00 | 0.00 | 97 | 1017.3 |
| 20260507030709 | 43 | 9 | 0.0 | 2.6 | 0.00 | 0.00 | 0.00 | 97 | 1017.5 |
| 20260507030508 | 43 | 31 | 0.9 | 2.6 | 0.00 | 0.00 | 0.00 | 97 | 1017.6 |
| 20260507030308 | 43 | 30 | 1.7 | 2.6 | 0.00 | 0.00 | 0.00 | 97 | 1017.4 |
| 20260507030109 | 43 | 33 | 1.7 | 2.6 | 0.00 | 0.00 | 0.00 | 97 | 1017.4 |
| 20260507025908 | 43 | 21 | 1.7 | 2.6 | 0.00 | 0.00 | 0.00 | 97 | 1017.5 |
| 20260507025709 | 43 | 61 | 0.9 | 2.6 | 0.00 | 0.00 | 0.00 | 97 | 1017.3 |
| 20260507025508 | 43 | 22 | 1.7 | 2.6 | 0.00 | 0.00 | 0.00 | 97 | 1017.3 |
| 20260507025308 | 43 | 46 | 1.7 | 1.7 | 0.00 | 0.00 | 0.00 | 96 | 1017.4 |
| 20260507025108 | 43 | 29 | 0.9 | 1.7 | 0.00 | 0.00 | 0.00 | 96 | 1017.2 |
| 20260507024908 | 43 | 36 | 0.0 | 1.7 | 0.00 | 0.00 | 0.00 | 96 | 1017.5 |
| 20260507024708 | 43 | 31 | 0.0 | 2.6 | 0.00 | 0.00 | 0.00 | 96 | 1017.2 |
| 20260507024508 | 43 | 30 | 0.0 | 2.6 | 0.00 | 0.00 | 0.00 | 96 | 1017.3 |
| 20260507024308 | 43 | 19 | 0.0 | 2.6 | 0.00 | 0.00 | 0.00 | 96 | 1017.2 |
| 20260507024108 | 43 | 38 | 0.0 | 2.6 | 0.00 | 0.00 | 0.00 | 96 | 1017.3 |
| 20260507023909 | 43 | 39 | 1.7 | 2.6 | 0.00 | 0.00 | 0.00 | 96 | 1017.1 |
| 20260507023708 | 43 | 35 | 0.0 | 1.7 | 0.00 | 0.00 | 0.00 | 96 | 1017.2 |
| 20260507023508 | 43 | 46 | 0.9 | 1.7 | 0.00 | 0.00 | 0.00 | 96 | 1017.2 |
| 20260507023308 | 44 | 18 | 0.0 | 1.7 | 0.00 | 0.00 | 0.00 | 96 | 1017.0 |
| 20260507023108 | 44 | 33 | 0.9 | 1.7 | 0.00 | 0.00 | 0.00 | 96 | 1017.2 |
| 20260507022908 | 44 | 25 | 0.9 | 1.7 | 0.00 | 0.00 | 0.00 | 95 | 1017.1 |
| 20260507022708 | 44 | 3 | 0.0 | 1.7 | 0.00 | 0.00 | 0.00 | 95 | 1017.0 |
| 20260507022308 | 44 | 9 | 0.0 | 1.7 | 0.00 | 0.00 | 0.00 | 95 | 1017.2 |
| 20260507022108 | 44 | 48 | 0.9 | 1.7 | 0.00 | 0.00 | 0.00 | 95 | 1017.3 |
| 20260507021909 | 44 | 37 | 1.7 | 1.7 | 0.00 | 0.00 | 0.00 | 96 | 1017.1 |
| 20260507021708 | 44 | 29 | 0.0 | 1.7 | 0.00 | 0.00 | 0.00 | 96 | 1017.2 |
| 20260507021508 | 44 | 33 | 0.9 | 2.6 | 0.00 | 0.00 | 0.00 | 96 | 1017.3 |
| 20260507021308 | 45 | 20 | 0.0 | 2.6 | 0.00 | 0.00 | 0.00 | 96 | 1017.2 |
| 20260507021108 | 44 | 22 | 1.7 | 2.6 | 0.00 | 0.00 | 0.00 | 96 | 1017.3 |
| 20260507020908 | 45 | 19 | 0.0 | 2.6 | 0.00 | 0.00 | 0.00 | 96 | 1017.3 |
| 20260507020708 | 45 | 17 | 0.9 | 2.6 | 0.00 | 0.00 | 0.00 | 96 | 1017.2 |
| 20260507020507 | 45 | 21 | 1.7 | 2.6 | 0.00 | 0.00 | 0.00 | 96 | 1017.2 |
| 20260507020309 | 44 | 14 | 1.7 | 2.6 | 0.00 | 0.00 | 0.00 | 96 | 1017.1 |
| 20260507020108 | 44 | 347 | 0.0 | 2.6 | 0.00 | 0.00 | 0.00 | 97 | 1017.3 |
| 20260507015908 | 44 | 340 | 0.9 | 2.6 | 0.00 | 0.00 | 0.00 | 97 | 1017.2 |
| 20260507015710 | 44 | 358 | 0.0 | 1.7 | 0.00 | 0.00 | 0.00 | 97 | 1017.1 |
| 20260507015508 | 44 | 330 | 1.7 | 2.6 | 0.00 | 0.00 | 0.00 | 97 | 1017.2 |
| 20260507015308 | 44 | 17 | 0.0 | 2.6 | 0.00 | 0.00 | 0.00 | 97 | 1017.2 |
| 20260507015109 | 44 | 357 | 0.0 | 2.6 | 0.00 | 0.00 | 0.00 | 97 | 1017.1 |
| 20260507014908 | 44 | 5 | 0.0 | 2.6 | 0.00 | 0.00 | 0.00 | 97 | 1017.2 |
| 20260507014708 | 44 | 336 | 0.0 | 2.6 | 0.00 | 0.00 | 0.00 | 97 | 1017.1 |
| 20260507014508 | 44 | 7 | 0.9 | 1.7 | 0.00 | 0.00 | 0.00 | 97 | 1017.2 |
| 20260507014309 | 44 | 354 | 0.9 | 1.7 | 0.00 | 0.00 | 0.00 | 97 | 1017.1 |
| 20260507014108 | 44 | 334 | 1.7 | 1.7 | 0.00 | 0.00 | 0.00 | 97 | 1017.2 |
| 20260507013908 | 44 | 7 | 0.9 | 1.7 | 0.00 | 0.00 | 0.00 | 97 | 1017.3 |
| 20260507013708 | 44 | 3 | 0.0 | 1.7 | 0.00 | 0.00 | 0.00 | 97 | 1017.1 |
| 20260507013508 | 44 | 8 | 0.0 | 1.7 | 0.00 | 0.00 | 0.00 | 97 | 1017.3 |
| 20260507013308 | 44 | 331 | 0.0 | 1.7 | 0.00 | 0.00 | 0.00 | 97 | 1017.2 |